Weather History for Youngstown, OH

Change the Weather History Date:

Wednesday, January 16, 2013

  Actual Average Record
Temperature  
Mean Temperature 32 °F 26 °F  
Max Temperature 35 °F 32 °F 56 °F (1953)
Min Temperature 29 °F 19 °F -14 °F (1982)
Degree Days  
Heating Degree Days 33 40  
Month to date heating degree days 516 627  
Since 1 July heating degree days 2779 3033  
Cooling Degree Days 0 0  
Month to date cooling degree days 0 0  
Year to date cooling degree days 0 0  
Moisture  
Dew Point 23 °F    
Average Humidity 67    
Maximum Humidity 78    
Minimum Humidity 56    
Precipitation  
Precipitation 0.00 in 0.08 in 0.52 in (1991)
Month to date precipitation 0.67 1.38  
Year to date precipitation 0.67 1.38  
Snow  
Snow 0.00 in 0.60 in - ()
Month to date snowfall 0.9 8.7  
Since 1 July snowfall 28.1 28.1  
Snow Depth 0.00 in    
Sea Level Pressure  
Sea Level Pressure 29.95 in    
Wind  
Wind Speed 7 mph (SW)    
Max Wind Speed 16 mph    
Max Gust Speed 22 mph    
Visibility 10 miles    
Events      
T = Trace of Precipitation, MM = Missing Value Source: NWS Daily Summary

Daily Weather History Graph

Daily Weather History Graph

Search for Another Location

Airport:

Trip Planner

Search our weather history database for the weather conditions in past years. The results will help you decide how hot, cold, wet, or windy it might be!

Date:

Astronomy

Jan. 16, 2013 Rise Set
Actual Time 7:45 AM EST 5:19 PM EST
Civil Twilight 7:15 AM EST 5:50 PM EST
Nautical Twilight 6:41 AM EST 6:24 PM EST
Astronomical Twilight 6:08 AM EST 6:57 PM EST
Moon 10:17 AM EST (1/16) 11:14 PM EST (1/16)
Length of Visible Light 10h 35m
Length of Day
9h 34m
Waxing Crescent, 28% of the Moon is Illuminated
Jan 16
Waxing Crescent
Jan 18
First Quarter
Jan 26
Full
Feb 3
Last Quarter
Feb 10
New

Hourly Weather History & Observations

Time (EST) Temp. Windchill Dew Point Humidity Pressure Visibility Wind Dir Wind Speed Gust Speed Precip Events Conditions
12:51 AM 28.9 °F 22.8 °F 21.0 °F 72% 30.09 in 10.0 mi East 5.8 mph - N/A   Overcast
1:51 AM 30.2 °F 23.4 °F 21.2 °F 69% 30.01 in 10.0 mi East 6.9 mph - N/A   Overcast
2:51 AM 30.0 °F - 21.0 °F 69% 30.06 in 10.0 mi Calm Calm - N/A   Overcast
3:51 AM 30.2 °F - 21.2 °F 69% 29.99 in 10.0 mi Calm Calm - N/A   Overcast
4:36 AM 30.2 °F - 21.2 °F 69% 29.97 in 10.0 mi Calm Calm - N/A   Overcast
4:51 AM 30.0 °F - 23.0 °F 75% 30.00 in 10.0 mi Calm Calm - N/A   Overcast
5:51 AM 30.0 °F - 23.0 °F 75% 29.98 in 10.0 mi Calm Calm - N/A   Overcast
6:51 AM 30.2 °F - 23.0 °F 75% 29.93 in 10.0 mi Calm Calm - N/A   Overcast
7:31 AM 30.2 °F - 24.8 °F 80% 29.93 in 10.0 mi Calm Calm - N/A   Overcast
7:51 AM 30.0 °F 25.2 °F 23.0 °F 75% 29.96 in 10.0 mi NNW 4.6 mph - N/A   Overcast
8:45 AM 30.2 °F - 24.8 °F 80% 29.93 in 10.0 mi Calm Calm - N/A   Overcast
8:51 AM 30.2 °F - 23.0 °F 75% 29.93 in 10.0 mi Calm Calm - N/A   Overcast
9:51 AM 30.9 °F 27.5 °F 24.1 °F 76% 29.95 in 10.0 mi SSW 3.5 mph - N/A   Overcast
10:07 AM 30.2 °F - 24.8 °F 80% 29.89 in 10.0 mi Calm Calm - N/A   Overcast
10:51 AM 32.0 °F 27.5 °F 25.0 °F 75% 29.93 in 10.0 mi SW 4.6 mph - N/A   Overcast
11:51 AM 32.0 °F 25.6 °F 26.1 °F 79% 29.92 in 8.0 mi SW 6.9 mph - N/A   Overcast
12:18 PM 32.0 °F 23.6 °F 26.6 °F 80% 29.88 in 7.0 mi SW 10.4 mph - N/A   Overcast
12:51 PM 33.1 °F 24.4 °F 26.1 °F 75% 29.90 in 9.0 mi WSW 11.5 mph - N/A   Overcast
1:51 PM 34.0 °F 26.0 °F 25.0 °F 70% 29.88 in 10.0 mi WSW 10.4 mph - N/A   Overcast
2:51 PM 35.1 °F 26.4 °F 21.9 °F 59% 29.89 in 10.0 mi WSW 12.7 mph - N/A   Mostly Cloudy
3:51 PM 34.0 °F 25.5 °F 21.9 °F 61% 29.90 in 10.0 mi SW 11.5 mph - N/A   Overcast
4:51 PM 33.1 °F 24.4 °F 21.0 °F 61% 29.91 in 10.0 mi SW 11.5 mph - N/A   Mostly Cloudy
5:51 PM 32.0 °F 24.8 °F 21.9 °F 66% 29.93 in 10.0 mi SSW 8.1 mph - N/A   Mostly Cloudy
6:51 PM 32.0 °F 24.2 °F 24.1 °F 73% 29.96 in 9.0 mi SSW 9.2 mph - N/A   Overcast
7:51 PM 32.0 °F 23.0 °F 25.0 °F 75% 29.96 in 8.0 mi SSW 11.5 mph 20.7 mph N/A   Overcast
8:51 PM 30.9 °F 21.7 °F 25.0 °F 79% 29.96 in 8.0 mi SSW 11.5 mph - N/A   Mostly Cloudy
9:51 PM 30.9 °F 22.2 °F 24.1 °F 76% 29.96 in 9.0 mi SW 10.4 mph 21.9 mph N/A   Mostly Cloudy
10:51 PM 32.0 °F 22.5 °F 23.0 °F 69% 29.99 in 9.0 mi WSW 12.7 mph - N/A   Overcast
11:51 PM 32.0 °F 23.6 °F 23.0 °F 69% 29.99 in 10.0 mi SW 10.4 mph - N/A   Overcast